Location: ????????
(55.5667°N, 37.5833°E)
Time: 08:09:36
(UTC+00:00)

USA 238 - Pass Details

Date: 14 April 2026
Orbit: 883 x 1328 km, 63.4° (Epoch: 10 January)

Event Time Altitude Azimuth Distance (km) Brightness Sun altitude
Rises 17:17:09 0° 307° (NW) 3,861 8.9 -6.5°
Reaches altitude 10° 17:19:41 10° 308° (NW) 2,965 7.7 -6.9°
Maximum altitude 17:26:52 85° 38° (NE) 1,202 4.0 -7.7°
Enters shadow 17:34:48 10° 128° (SE) 3,263 5.6 -8.7°
Drops below altitude 10° 17:34:48 10° 128° (SE) 3,263 5.6 -8.7°
